User: anonymous
Location: Albany
(35.0000°S, 118.0000°E)
Time: 23:39:01
(UTC-04:00)
Language:

Cosmos 1758 Rocket - Orbit

View from above orbital plane
View from above orbital plane
View from above satellite
View from above satellite

Ground track
Ground track

The orbit data is extracted from the following two-line orbital elements,

1 16792U 86046B   14204.90738084  .00000129  00000-0  13026-4 0  5218
2 16792 082.4846 118.8480 0024972 176.3663 229.7190 14.82586498517890
Epoch (UTC): 23 July 2014 21:46:37
Eccentricity: 0.0024972
inclination: 82.4846°
perigee height: 603 km
apogee height: 638 km
right ascension of ascending node: 118.8480°
argument of perigee: 176.3663°
revolutions per day: 14.82586498
mean anomaly at epoch: 229.7190°
orbit number at epoch: 51789

The dashed part of the orbit path shows where the satellite is in the earth's shadow,  

DLR